[[{"header":{"parameterUnit":"m.s-1","parameterCategory":1,"la1":30.2991,"la2":30.254,"lo1":-89.0895,"lo2":-89.0444,"dy":0.0017,"dx":0.0017,"nx":28,"ny":28,"refTime":"2025-01-21T03:00:00:Z","depth":0,"parameterNumber":2,"parameterNumberName":"U-component_of_WINDS"},"data":[0,0,0,0,0,0,0,0,0,0,0,0,0,0,0,0,0,0,0,0,0,0,0,0,0,0,0,0,0,0,0,0,0,0,0,0,0,0,0,0,0,0,0,0,0,0,0,0,0,0,0,0,0,0,0,0,0,0,-1.6312,-1.6313,0,-1.6377,-1.6378,-1.6378,-1.633,-1.6328,-1.6326,-1.6324,-1.6391,-1.6395,-1.6398,0,0,0,0,0,0,0,0,0,0,0,0,0,-1.6148,-1.6151,-1.6312,-1.6313,-1.6314,-1.6377,-1.6378,-1.6379,-1.6331,-1.6328,-1.6326,-1.6323,-1.639,-1.6394,-1.6399,0,0,0,0,0,0,0,0,0,0,0,0,0,-1.6216,-1.6152,-1.6312,-1.6298,-1.6297,-1.6377,-1.6378,-1.6379,-1.6331,-1.6328,-1.6325,-1.6322,-1.6388,-1.6394,-1.6399,-1.6497,0,0,-1.6416,-1.6419,0,0,0,0,0,0,0,0,-1.6213,-1.6223,-1.6299,-1.6299,-1.6298,-1.6342,-1.6344,-1.6418,-1.6332,-1.6318,-1.6324,-1.632,-1.6377,-1.6384,-1.6403,-1.65,-1.6503,-1.6417,-1.642,-1.6423,-1.6424,0,0,0,0,0,0,0,-1.6208,-1.6219,-1.6338,-1.63,-1.63,-1.6288,-1.6294,-1.6358,-1.6365,-1.6319,-1.6316,-1.6324,-1.6377,-1.6398,-1.6404,-1.6504,-1.6417,-1.6422,-1.6425,-1.6427,-1.6684,-1.6687,0,0,0,0,0,0,-1.6204,-1.6216,-1.6336,-1.634,-1.6247,-1.6293,-1.63,-1.6331,-1.6364,-1.6366,-1.6327,-1.6322,-1.6389,-1.6398,-1.6406,-1.6523,-1.6423,-1.6428,-1.6431,-1.6681,-1.6685,-1.6689,0,0,0,0,0,0,-1.6201,-1.6216,-1.6333,-1.6277,-1.6291,-1.63,-1.6335,-1.6334,-1.6355,-1.637,-1.6371,-1.6347,-1.6387,-1.6398,-1.6475,-1.6525,-1.6431,-1.6436,-1.6677,-1.6682,-1.6687,-1.6758,0,0,0,0,0,0,-1.6197,-1.6215,-1.6252,-1.6278,-1.6294,-1.6401,-1.6338,-1.6338,-1.6365,-1.6359,-1.6389,-1.6391,-1.6386,-1.6467,-1.648,-1.6531,-1.644,-1.6672,-1.6679,-1.6685,-1.6751,-1.6765,-1.6776,0,0,0,0,0,-1.6191,-1.627,-1.6254,-1.6269,-1.6341,-1.6404,-1.6413,-1.6406,-1.6369,-1.6407,-1.6416,-1.639,-1.6516,-1.6475,-1.649,-1.6543,-1.6669,-1.6677,-1.6685,-1.6745,-1.6762,-1.6776,0,0,0,0,0,0,-1.625,-1.6273,-1.6256,-1.6346,-1.6373,-1.6396,-1.6444,-1.6424,-1.6462,-1.6455,-1.6444,-1.6451,-1.6531,-1.6544,-1.6497,-1.6639,-1.6587,-1.6598,-1.6628,-1.6644,-1.6656,-1.6653,-1.6445,0,0,0,0,0,-1.6274,-1.6323,-1.634,-1.6417,-1.6432,-1.6435,-1.6462,-1.6454,-1.6482,-1.6494,-1.6508,-1.6537,-1.6583,-1.6613,-1.6657,-1.6751,-1.6758,-1.6795,-1.6808,-1.6818,-1.6829,-1.688,-1.6897,-1.6714,-1.6714,-1.6714,0,0,-1.6323,-1.6341,-1.6373,-1.643,-1.645,-1.6502,-1.6446,-1.6502,-1.654,-1.6502,-1.6576,-1.6587,-1.6618,-1.6704,-1.6742,-1.6717,-1.688,-1.6828,-1.6836,-1.6841,-1.689,-1.6907,-1.6922,-1.6719,-1.6718,-1.6718,0,0,-1.644,-1.6458,-1.6525,-1.6546,-1.6577,-1.6578,-1.6594,-1.662,-1.6626,-1.6699,-1.6671,-1.6715,-1.6795,-1.6818,-1.6841,-1.6963,-1.6941,-1.6977,-1.7045,-1.7095,-1.7109,-1.7122,-1.7167,-1.7183,-1.6987,-1.6988,-1.6988,0,-1.6498,-1.6574,-1.6562,-1.6621,-1.6646,-1.6613,-1.6681,-1.6701,-1.6745,-1.6764,-1.6734,-1.6833,-1.6851,-1.6942,-1.6972,-1.6991,-1.7009,-1.6976,-1.7108,-1.7121,-1.7133,-1.7175,-1.7192,-1.6992,-1.6991,-1.6991,-1.6991,0,-1.6644,-1.6697,-1.6747,-1.679,-1.682,-1.6883,-1.6881,-1.6913,-1.6901,-1.6906,-1.698,-1.7,-1.7047,-1.7067,-1.7056,-1.7157,-1.714,-1.711,-1.7058,-1.7155,-1.7195,-1.7211,-1.6998,-1.6997,-1.6995,-1.6994,0,0,-1.6803,-1.6836,-1.6855,-1.6874,-1.6905,-1.6946,-1.7006,-1.7051,-1.708,-1.711,-1.7161,-1.7228,-1.72,-1.7225,-1.7216,-1.7259,-1.7356,-1.7223,-1.7224,-1.7249,-1.7469,-1.7494,-1.7513,-1.734,-1.7343,-1.7346,-1.7467,0,-1.6922,-1.7028,-1.7018,-1.7119,-1.7168,-1.7136,-1.7189,-1.7213,-1.7218,-1.726,-1.7265,-1.7313,-1.7271,-1.7286,-1.7328,-1.7336,-1.7401,-1.7327,-1.7389,-1.7391,-1.7385,-1.7533,-1.756,-1.7673,-1.7482,-1.7485,-1.7487,0,-1.7076,-1.7112,-1.7218,-1.724,-1.726,-1.7308,-1.7348,-1.7388,-1.7415,-1.7415,-1.7443,-1.7425,-1.7486,-1.7431,-1.7515,-1.7464,-1.7489,-1.7496,-1.75,-1.7508,-1.7447,-1.7547,-1.7709,-1.7727,-1.7511,-1.7509,-1.7507,0,-1.7184,-1.7257,-1.733,-1.7347,-1.7375,-1.7409,-1.7422,-1.7446,-1.7473,-1.7508,-1.7525,-1.7566,-1.759,-1.7622,-1.7616,-1.7576,-1.7702,-1.7646,-1.7705,-1.7705,-1.7735,-1.7734,-1.7906,-1.7747,-1.7747,-1.7746,-1.7746,0,-1.7319,-1.7386,-1.7379,-1.7424,-1.7497,-1.7484,-1.7557,-1.7566,-1.7586,-1.7632,-1.7606,-1.765,-1.7638,-1.7681,-1.7677,-1.7747,-1.7757,-1.776,-1.7758,-1.7764,-1.7764,-1.7781,-1.7774,-1.7751,-1.775,-1.7749,-1.7748,0,-1.7453,-1.7451,-1.7529,-1.7548,-1.7554,-1.7607,-1.7623,-1.7666,-1.7667,-1.7726,-1.7739,-1.7742,-1.7791,-1.7788,-1.7843,-1.784,-1.7927,-1.7915,-1.7919,-1.7917,-1.7977,-1.7972,-1.8168,-1.8193,-1.8016,-1.8018,-1.8019,0,-1.7542,-1.7592,-1.7616,-1.7645,-1.766,-1.7707,-1.7734,-1.7722,-1.7752,-1.7785,-1.7824,-1.787,-1.7907,-1.7987,-1.7994,-1.8036,-1.8027,-1.8092,-1.8033,-1.8037,-1.803,-1.8028,-1.8033,-1.8105,-1.8107,-1.8108,-1.811,0,-1.7699,-1.7695,-1.7735,-1.7776,-1.7809,-1.784,-1.7869,-1.7894,-1.7885,-1.7919,-1.7969,-1.7998,-1.8054,-1.8101,-1.814,-1.8153,-1.8131,-1.8128,-1.8144,-1.8151,-1.8152,-1.8154,-1.7953,-1.8124,-1.8123,-1.8122,-1.8121,-1.812,-1.7814,-1.7857,-1.788,-1.7926,-1.7946,-1.7973,-1.8014,-1.8019,-1.8061,-1.8106,-1.8095,-1.8152,-1.8175,-1.8226,-1.8243,-1.8286,-1.8263,-1.8286,-1.8292,-1.8299,-1.8306,-1.8143,-1.8293,-1.8293,-1.8292,-1.8292,-1.8292,0,-1.7971,-1.7984,-1.8026,-1.8066,-1.8102,-1.8076,-1.8105,-1.8138,-1.8187,-1.8211,-1.8248,-1.8304,-1.8349,-1.8359,-1.8401,-1.8434,-1.8425,-1.8446,-1.8445,-1.8448,-1.8324,-1.8307,-1.8453,-1.8453,-1.8453,-1.8453,-1.8453,-1.8453,-1.8057,-1.8129,-1.8128,-1.8208,-1.822,-1.8275,-1.8295,-1.8319,-1.8338,-1.8402,-1.8439,-1.8445,-1.8463,-1.8506,-1.8546,-1.8547,-1.8565,-1.8591,-1.8588,-1.8473,-1.8457,-1.8442,-1.8425,-1.8594,-1.8594,-1.8709,-1.871,-1.8711]},{"header":{"parameterUnit":"m.s-1","parameterCategory":1,"la1":30.2991,"la2":30.254,"lo1":-89.0895,"lo2":-89.0444,"dy":0.0017,"dx":0.0017,"nx":28,"ny":28,"refTime":"2025-01-21T03:00:00:Z","depth":0,"parameterNumber":3,"parameterNumberName":"V-component_of_WINDS"},"data":[0,0,0,0,0,0,0,0,0,0,0,0,0,0,0,0,0,0,0,0,0,0,0,0,0,0,0,0,0,0,0,0,0,0,0,0,0,0,0,0,0,0,0,0,0,0,0,0,0,0,0,0,0,0,0,0,0,0,-9.1011,-9.1013,0,-9.1197,-9.1199,-9.1201,-9.1104,-9.1099,-9.1094,-9.1089,-9.1271,-9.1281,-9.129,0,0,0,0,0,0,0,0,0,0,0,0,0,-9.0564,-9.0573,-9.1011,-9.1013,-9.1016,-9.1196,-9.1199,-9.1202,-9.1105,-9.1098,-9.1092,-9.1087,-9.1268,-9.1279,-9.1291,0,0,0,0,0,0,0,0,0,0,0,0,0,-9.0755,-9.0576,-9.1011,-9.0989,-9.0989,-9.1196,-9.1199,-9.1202,-9.1106,-9.1098,-9.1091,-9.1084,-9.1265,-9.1278,-9.1292,-9.1528,0,0,-9.1336,-9.1342,0,0,0,0,0,0,0,0,-9.0744,-9.0771,-9.099,-9.0991,-9.0992,-9.112,-9.1108,-9.1311,-9.1108,-9.1061,-9.1089,-9.108,-9.1226,-9.1243,-9.1294,-9.1537,-9.1545,-9.1337,-9.1346,-9.1352,-9.1356,0,0,0,0,0,0,0,-9.0731,-9.0763,-9.1084,-9.0993,-9.0994,-9.0968,-9.0987,-9.1146,-9.1183,-9.1065,-9.1058,-9.1082,-9.1225,-9.1281,-9.1298,-9.1547,-9.1337,-9.1349,-9.1358,-9.1364,-9.1991,-9.1999,0,0,0,0,0,0,-9.072,-9.0752,-9.1078,-9.109,-9.0847,-9.0982,-9.1003,-9.1086,-9.1181,-9.1189,-9.1088,-9.1077,-9.126,-9.1281,-9.1304,-9.1586,-9.1352,-9.1365,-9.1373,-9.1983,-9.1993,-9.2002,0,0,0,0,0,0,-9.0711,-9.075,-9.1071,-9.092,-9.0958,-9.0997,-9.1091,-9.1093,-9.1149,-9.1199,-9.1204,-9.1139,-9.1255,-9.1284,-9.1473,-9.1591,-9.1371,-9.1384,-9.1974,-9.1986,-9.1997,-9.2153,0,0,0,0,0,0,-9.0698,-9.0747,-9.084,-9.0922,-9.0967,-9.1241,-9.1099,-9.1102,-9.1175,-9.1161,-9.1247,-9.1254,-9.1251,-9.1453,-9.1488,-9.1606,-9.1395,-9.1963,-9.1979,-9.1994,-9.2137,-9.2169,-9.2196,0,0,0,0,0,-9.0683,-9.0875,-9.0845,-9.0885,-9.1084,-9.1248,-9.1273,-9.1268,-9.1184,-9.1276,-9.1308,-9.1252,-9.1572,-9.1473,-9.1511,-9.1636,-9.1956,-9.1975,-9.1992,-9.2124,-9.2163,-9.2195,0,0,0,0,0,0,-9.0802,-9.0885,-9.0853,-9.1078,-9.1157,-9.1231,-9.1347,-9.1309,-9.1411,-9.1394,-9.1381,-9.1401,-9.1598,-9.1636,-9.1524,-9.1869,-9.1751,-9.1778,-9.1838,-9.1875,-9.1903,-9.189,-9.1407,0,0,0,0,0,-9.0855,-9.0985,-9.1048,-9.124,-9.1282,-9.1308,-9.1379,-9.1369,-9.1449,-9.1481,-9.1526,-9.1604,-9.1722,-9.18,-9.1911,-9.2142,-9.2158,-9.2246,-9.2275,-9.2299,-9.2323,-9.2446,-9.2486,-9.2062,-9.2062,-9.2062,0,0,-9.0965,-9.1026,-9.1108,-9.1266,-9.1326,-9.1458,-9.1337,-9.1481,-9.1578,-9.1502,-9.1685,-9.1721,-9.1806,-9.2017,-9.2112,-9.2055,-9.2443,-9.2322,-9.2341,-9.2352,-9.2469,-9.2509,-9.2545,-9.2075,-9.2072,-9.207,0,0,-9.1233,-9.1293,-9.1459,-9.1522,-9.1615,-9.1631,-9.1671,-9.1751,-9.1773,-9.1957,-9.1902,-9.2015,-9.2219,-9.2282,-9.2341,-9.2632,-9.2584,-9.2668,-9.2821,-9.2941,-9.2975,-9.3004,-9.3107,-9.3145,-9.2691,-9.2691,-9.2692,0,-9.1357,-9.1556,-9.1549,-9.1699,-9.1769,-9.1708,-9.1875,-9.1935,-9.2059,-9.2107,-9.2041,-9.2296,-9.2349,-9.2573,-9.2644,-9.2694,-9.2737,-9.2659,-9.2971,-9.3,-9.3028,-9.3126,-9.3165,-9.2701,-9.27,-9.2699,-9.2698,0,-9.1704,-9.1843,-9.1965,-9.209,-9.2173,-9.233,-9.2344,-9.2429,-9.241,-9.2432,-9.2619,-9.2681,-9.2803,-9.2855,-9.2837,-9.3077,-9.3038,-9.2972,-9.2853,-9.3078,-9.317,-9.3208,-9.2715,-9.2711,-9.2709,-9.2706,0,0,-9.2054,-9.2172,-9.2217,-9.2272,-9.237,-9.2475,-9.2628,-9.2751,-9.2823,-9.291,-9.3037,-9.321,-9.3149,-9.3216,-9.3204,-9.331,-9.3536,-9.323,-9.3232,-9.3285,-9.3803,-9.3853,-9.3897,-9.3504,-9.3511,-9.3517,-9.3795,0,-9.2329,-9.2601,-9.2598,-9.2848,-9.2975,-9.2918,-9.3051,-9.3124,-9.3148,-9.3256,-9.3281,-9.3405,-9.3315,-9.3355,-9.3457,-9.3487,-9.3639,-9.3467,-9.362,-9.3626,-9.3602,-9.3945,-9.3999,-9.4259,-9.3831,-9.3837,-9.3842,0,-9.2686,-9.2788,-9.3052,-9.313,-9.3183,-9.3303,-9.3414,-9.352,-9.36,-9.3609,-9.3684,-9.3656,-9.3808,-9.3685,-9.3894,-9.3776,-9.3838,-9.3862,-9.3872,-9.3886,-9.3748,-9.3969,-9.4342,-9.4381,-9.3898,-9.3894,-9.389,0,-9.2915,-9.3117,-9.3301,-9.335,-9.3446,-9.3531,-9.3575,-9.3648,-9.3721,-9.3817,-9.3864,-9.3975,-9.4036,-9.4122,-9.4123,-9.4033,-9.4334,-9.421,-9.4345,-9.4345,-9.4412,-9.4408,-9.48,-9.4451,-9.445,-9.445,-9.4449,0,-9.3223,-9.3387,-9.3405,-9.3519,-9.3699,-9.3692,-9.387,-9.3905,-9.397,-9.4087,-9.4043,-9.4153,-9.4148,-9.4258,-9.426,-9.4432,-9.4459,-9.447,-9.4469,-9.4475,-9.4474,-9.4516,-9.4498,-9.446,-9.4458,-9.4456,-9.4454,0,-9.351,-9.3529,-9.3726,-9.3801,-9.3824,-9.3954,-9.4016,-9.4122,-9.4142,-9.429,-9.4324,-9.4354,-9.4482,-9.4492,-9.4639,-9.4639,-9.4848,-9.4827,-9.4823,-9.4819,-9.4953,-9.4941,-9.5387,-9.5445,-9.5058,-9.5061,-9.5064,0,-9.3706,-9.3831,-9.392,-9.3996,-9.4046,-9.4169,-9.4244,-9.4241,-9.432,-9.442,-9.4514,-9.4638,-9.4737,-9.4943,-9.4976,-9.5088,-9.5069,-9.5217,-9.5085,-9.5087,-9.5071,-9.5064,-9.5076,-9.5243,-9.5248,-9.5251,-9.5254,0,-9.4052,-9.4055,-9.4166,-9.4282,-9.4373,-9.4463,-9.4546,-9.461,-9.4617,-9.4708,-9.4839,-9.4917,-9.5067,-9.519,-9.53,-9.534,-9.5299,-9.5295,-9.5332,-9.534,-9.5333,-9.5339,-9.4893,-9.5285,-9.5282,-9.528,-9.5278,-9.5277,-9.4299,-9.4408,-9.4487,-9.4613,-9.4675,-9.4754,-9.4858,-9.4891,-9.5002,-9.5126,-9.5116,-9.5262,-9.5336,-9.5479,-9.5528,-9.5639,-9.5589,-9.5642,-9.5656,-9.567,-9.5684,-9.5315,-9.5659,-9.5658,-9.5657,-9.5657,-9.5656,0,-9.4643,-9.4691,-9.4807,-9.4926,-9.5024,-9.4978,-9.5067,-9.5152,-9.5281,-9.5355,-9.5454,-9.5604,-9.5723,-9.5765,-9.588,-9.5961,-9.5945,-9.5991,-9.5986,-9.5996,-9.5723,-9.5679,-9.6003,-9.6003,-9.6003,-9.6003,-9.6003,-9.6003,-9.4833,-9.5014,-9.5026,-9.5237,-9.5282,-9.5427,-9.5482,-9.5554,-9.5613,-9.5784,-9.5883,-9.5911,-9.5971,-9.609,-9.6196,-9.6205,-9.6249,-9.6305,-9.6305,-9.605,-9.6015,-9.5982,-9.5941,-9.6314,-9.6315,-9.6569,-9.6571,-9.6573]}]]